This demonstration page uses our WeatherBlox Daily Observations layout. Learn more.

Hourly Observations for December 27, 2019

Temp ( °F °C ) Dew Point ( °F °C ) Humidity (%) Winds ( mph kmh ) Pressure ( in mb ) Visibility ( mi km ) Precip ( " mm )
12:15 am 00:15 Clear 22 -5.5 21 -5.9 97 97 Calm 30.33 1027 10 16.0934 0 0
12:35 am 00:35 Clear 22 -5.6 22 -5.8 99 99 Calm 30.33 1027 10 16.0934 0 0
12:55 am 00:55 Clear 22 -5.7 21 -6 98 98 Calm 30.34 1027 10 16.0934 0 0
1:15 am 01:15 Clear 21 -6.2 20 -6.6 97 97 Calm 30.35 1028 10 16.0934 0 0
1:35 am 01:35 Clear 21 -5.9 21 -6.2 98 98 SW 3 6 30.34 1028 10 16.0934 0 0
1:55 am 01:55 Clear 24 -4.6 23 -4.9 98 98 Calm 30.32 1027 10 16.0934 0 0
2:15 am 02:15 Clear 24 -4.3 24 -4.6 98 98 Calm 30.32 1027 10 16.0934 0 0
2:35 am 02:35 Clear 26 -3.5 25 -3.7 99 99 S 6 9 30.33 1027 10 16.0934 0 0
2:55 am 02:55 Clear 25 -3.7 25 -4 98 98 Calm 30.33 1027 10 16.0934 0 0
3:15 am 03:15 Clear 26 -3.6 25 -4 97 97 SW 3 6 30.33 1027 10 16.0934 0 0
3:35 am 03:35 Clear 27 -3 26 -3.2 99 99 SW 5 7 30.32 1027 10 16.0934 0 0
3:55 am 03:55 Clear 27 -2.8 26 -3.1 98 98 Calm 30.31 1027 10 16.0934 0 0
4:15 am 04:15 Clear 27 -3 26 -3.4 97 97 Calm 30.3 1026 7 11.26538 0 0
4:35 am 04:35 Clear 25 -4 24 -4.3 98 98 Calm 30.3 1026 7 11.26538 0 0
4:55 am 04:55 Clear 25 -4 24 -4.2 99 99 SSW 3 6 30.31 1027 7 11.26538 0 0
5:15 am 05:15 Clear 24 -4.5 23 -4.8 98 98 Calm 30.32 1027 7 11.26538 0 0
5:35 am 05:35 Clear 26 -3.5 26 -3.6 99 99 SW 5 7 30.32 1027 7 11.26538 0 0
5:55 am 05:55 Clear 26 -3.5 25 -3.7 99 99 SSW 5 7 30.32 1027 7 11.26538 0 0
6:15 am 06:15 Clear 26 -3.5 25 -4 96 96 Calm 30.31 1026 7 11.26538 0 0
6:35 am 06:35 Clear 26 -3.6 25 -4 97 97 Calm 30.31 1026 7 11.26538 0 0
6:55 am 06:55 Clear 24 -4.2 24 -4.6 97 97 Calm 30.32 1027 7 11.26538 0 0
7:15 am 07:15 Clear 24 -4.7 23 -4.9 99 99 SSW 3 6 30.32 1027 7 11.26538 0 0
7:35 am 07:35 Clear 23 -4.8 23 -5.1 98 98 Calm 30.31 1026 7 11.26538 0 0
7:55 am 07:55 Clear 24 -4.7 23 -5 98 98 Calm 30.31 1026 7 11.26538 0 0
8:15 am 08:15 Sunny 24 -4.2 24 -4.5 98 98 Calm 30.3 1026 7 11.26538 0 0
8:35 am 08:35 Partly Cloudy with Mist and Fog 23 -5 23 -5.2 99 99 Calm 30.31 1027 5 8.0467 0 0
8:55 am 08:55 Mostly Cloudy 27 -3 26 -3.1 99 99 SW 3 6 30.3 1026 7 11.26538 0 0
9:15 am 09:15 Cloudy 29 -1.9 28 -2.3 97 97 SW 3 6 30.3 1026 10 16.0934 0 0
9:35 am 09:35 Mostly Cloudy 31 -0.7 29 -1.4 95 95 Calm 30.28 1025 10 16.0934 0 0
9:55 am 09:55 Partly Cloudy 31 -0.5 29 -1.5 93 93 SW 3 6 30.29 1026 10 16.0934 0 0
10:15 am 10:15 Sunny 32 0.1 31 -0.7 94 94 WSW 3 6 30.28 1026 10 16.0934 0 0
10:35 am 10:35 Mostly Cloudy 33 0.3 31 -0.7 93 93 SSW 3 6 30.28 1025 10 16.0934 0 0
10:55 am 10:55 Mostly Cloudy 33 0.8 31 -0.7 90 90 S 5 7 30.27 1025 10 16.0934 0 0
11:15 am 11:15 Partly Cloudy 34 1.3 31 -0.6 87 87 S 3 6 30.24 1024 10 16.0934 0 0
11:35 am 11:35 Sunny 34 1.2 31 -0.8 87 87 S 3 6 30.23 1024 10 16.0934 0 0
11:55 am 11:55 Mostly Cloudy 35 1.5 31 -0.6 86 86 S 6 9 30.22 1023 10 16.0934 0 0
12:15 pm 12:15 Cloudy 36 2 30 -1 81 81 SSE 8 13 30.2 1023 10 16.0934 0 0
12:35 pm 12:35 Mostly Cloudy 36 2.2 31 -0.7 81 81 SSE 6 9 30.18 1022 10 16.0934 0 0
12:55 pm 12:55 Partly Cloudy 38 3.1 30 -0.9 75 75 SSE 9 15 30.16 1021 10 16.0934 0 0
1:15 pm 13:15 Sunny 38 3.1 30 -1.1 74 74 SSE 7 11 30.16 1021 10 16.0934 0 0
1:35 pm 13:35 Sunny 38 3.1 31 -0.8 76 76 SSE 10 17 30.15 1021 10 16.0934 0 0
1:55 pm 13:55 Partly Cloudy 39 3.8 31 -0.6 73 73 SSE 10 17 30.13 1020 10 16.0934 0 0
2:15 pm 14:15 Mostly Cloudy 38 3.5 31 -0.7 74 74 SE 7 11 30.12 1020 10 16.0934 0 0
2:35 pm 14:35 Cloudy 38 3.5 31 -0.8 74 74 SSE 9 15 30.12 1020 10 16.0934 0 0
2:55 pm 14:55 Cloudy 37 3 30 -1.1 75 75 SSE 7 11 30.12 1020 10 16.0934 0 0
3:15 pm 15:15 Cloudy 37 2.8 30 -1 76 76 SE 7 11 30.11 1020 10 16.0934 0 0
3:35 pm 15:35 Mostly Cloudy 37 3 31 -0.8 76 76 ESE 7 11 30.1 1019 10 16.0934 0 0
3:55 pm 15:55 Cloudy 37 3 31 -0.7 77 77 ESE 6 9 30.09 1019 10 16.0934 0 0
4:15 pm 16:15 Mostly Cloudy 37 2.9 31 -0.7 77 77 ESE 6 9 30.1 1019 10 16.0934 0 0
4:35 pm 16:35 Mostly Cloudy 37 2.8 31 -0.6 79 79 E 6 9 30.09 1019 10 16.0934 0 0
4:55 pm 16:55 Cloudy 37 2.7 31 -0.7 79 79 E 6 9 30.08 1019 10 16.0934 0 0
5:15 pm 17:15 Cloudy 37 2.5 31 -0.7 80 80 E 6 9 30.08 1019 10 16.0934 0 0
5:35 pm 17:35 Cloudy with Rain 35 1.9 31 -0.3 86 86 ENE 7 11 30.08 1019 7 11.26538 0 0
5:55 pm 17:55 Cloudy with Light Rain 35 1.5 32 0 90 90 E 7 11 30.08 1019 10 16.0934 0 0
6:15 pm 18:15 Cloudy with Light Rain 34 1.2 32 0 92 92 E 8 13 30.07 1018 7 11.26538 0 0
6:35 pm 18:35 Cloudy with Light Rain 34 1 32 0 93 93 E 6 9 30.08 1018 7 11.26538 0 0
6:55 pm 18:55 Cloudy with Rain 33 0.8 32 0 94 94 E 10 17 30.07 1018 4 6.43736 0.05 1.27
7:15 pm 19:15 Cloudy with Light Wintry Mix 33 0.6 32 0 96 96 ENE 9 15 30.05 1018 4 6.43736 0.03 0.762
7:35 pm 19:35 Cloudy with Light Wintry Mix 33 0.6 32 0 96 96 E 10 17 30.06 1018 5 8.0467 0.05 1.27
7:55 pm 19:55 Cloudy with Light Wintry Mix 33 0.5 32 0 96 96 E 13 20 30.05 1018 3 4.82802 0.09 2.286
8:15 pm 20:15 Cloudy with Light Wintry Mix 33 0.5 32 0 96 96 E 7 11 30.06 1018 3 4.82802 0.05 1.27
8:35 pm 20:35 Cloudy with Light Wintry Mix 33 0.5 32 0.1 97 97 Calm 30.08 1019 2.5 4.02335 0.12 3.048
8:55 pm 20:55 Cloudy with Light Wintry Mix 33 0.3 32 0.1 99 99 E 10 17 30.06 1018 3 4.82802 0.19 4.826
9:15 pm 21:15 Cloudy with Light Wintry Mix 32 0.1 32 0 99 99 E 12 19 30.03 1017 3 4.82802 0.04 1.016
9:35 pm 21:35 Cloudy with Light Wintry Mix 32 0 32 0 100 100 E 10 17 30 1016 4 6.43736 0.05 1.27
9:55 pm 21:55 Cloudy with Light Wintry Mix 32 0 32 0 100 100 E 14 22 29.99 1016 5 8.0467 0.05 1.27
10:15 pm 22:15 Cloudy with Light Wintry Mix 32 0 32 0 100 100 E 15 24 29.98 1015 4 6.43736 0 0
10:35 pm 22:35 Cloudy with Light Wintry Mix 32 0.1 32 0.1 100 100 ESE 10 17 29.99 1016 5 8.0467 0 0
10:55 pm 22:55 Cloudy with Light Wintry Mix 32 0.1 32 0.1 100 100 ESE 10 17 29.98 1015 5 8.0467 0.01 0.254
11:15 pm 23:15 Cloudy with Mist and Fog 32 0.1 32 0.1 100 100 E 8 13 29.97 1015 5 8.0467 0 0
11:35 pm 23:35 Cloudy with Light Wintry Mix 32 0.2 32 0.2 100 100 ESE 8 13 29.97 1015 5 8.0467 0 0
11:55 pm 23:55 Cloudy with Light Wintry Mix 32 0.2 32 0.2 100 100 ESE 9 15 29.95 1014 5 8.0467 0 0

Powered by AerisWeather